Location: Aufkirchen
(47.9603°N, 11.3653°E)
Time: 14:15:42
(UTC+01:00)

Transit 2A Rocket - Pass Details

Date: 06 December 2020
Orbit: 592 x 910 km, 66.7° (Epoch: 21 January)

Event Time Altitude Azimuth Distance (km) Brightness Sun altitude
Rises 01:12:03 0° 225° (SW) 3,489 - -61.3°
Reaches altitude 10° 01:14:39 10° 229° (SW) 2,525 - -61.1°
Maximum altitude 01:20:27 60° 309° (NW) 950 - -60.5°
Drops below altitude 10° 01:25:51 10° 30° (NNE) 2,353 - -59.9°
Sets 01:28:12 0° 34° (NNE) 3,233 - -59.7°
